Regional Weather Roundup
Issued by NWS Jackson, KY

Home | Current Version | Previous Version | Text Only | Print | Product List | Glossary On
Versions: 1 2 3 4 5 6 7 8 9 10 11 12 13 14 15 16 17 18 19 20 21 22 23 24 25 26 27
000
ASUS43 KJKL 201310
RWRJKL

EAST KENTUCKY HOURLY WEATHER ROUNDUP
NATIONAL WEATHER SERVICE JACKSON KY
900 AM EDT THU JUL 20 2017

NOTE: "FAIR" INDICATES FEW OR NO CLOUDS BELOW 12,000 FEET WITH
NO SIGNIFICANT WEATHER AND/OR OBSTRUCTIONS TO VISIBILITY.

* THESE REPORTS ARE NOT UNDER NWS QUALITY CONTROL AND MAY NOT
  REPORT WEATHER SUCH AS PRECIPITATION AND FOG.

KYZ079-080-083-085-087-088-110-112-115-119-120-201400
...EASTERN KENTUCKY...

CITY           SKY/WX    TMP DP  RH WIND       PRES   REMARKS
JACKSON        MOSUNNY   76  68  76 CALM      30.17R
LONDON         SUNNY     74  68  81 SE3       30.16R
SOMERSET*      MOSUNNY   73  72  94 CALM      30.18R
MONTICELLO*    SUNNY     76  71  85 VRB3      30.18R
WILLIAMSBURG*  SUNNY     72  72 100 CALM      30.17R
MIDDLESBORO*   MOSUNNY   70  67  90 CALM      30.18R
HARLAN APT*    CLOUDY    68  64  88 CALM      30.19R VSB 1/2
PIKE CO APT*     N/A     75  72  89 CALM      30.18R
BIG SANDY APT* PTSUNNY   74  72  95 CALM      30.17R
MOREHEAD APT*  SUNNY     77  66  69 CALM      30.17R
ASHLAND*         N/A    N/A N/A N/A MISG        N/A
$$

KYZ035-036-041-042-044-050-067-078-099-201400
...CENTRAL KENTUCKY...

CITY           SKY/WX    TMP DP  RH WIND       PRES   REMARKS
MT STERLING*   CLOUDY    73  70  88 CALM      30.17R
FLEMING/MASON* CLOUDY    76  69  78 CALM      30.16R
DANVILLE*      PTSUNNY   79  68  69 CALM      30.17R
LEXINGTON      MOSUNNY   77  69  76 SW3       30.15R
FRANKFORT      MOSUNNY   78  69  73 SW6       30.13R
LOUISVILLE     CLOUDY    80  71  74 S5        30.12R
LEBANON*         N/A     75  72  88 CALM      30.15R
GLASGOW*       SUNNY     77  74  88 SW3       30.15R
BOWLING GREEN  CLOUDY    82  75  79 CALM      30.14R
$$

KYZ091>093-OHZ055-061-077-WVZ005-015-034-035-042-201400
...SOUTHERN OHIO/WEST VIRGINIA...

CITY           SKY/WX    TMP DP  RH WIND       PRES   REMARKS
COVINGTON      CLOUDY    77  73  87 SW5       30.13R
COLUMBUS       CLOUDY    76  71  85 S5        30.09S
DAYTON         CLOUDY    76  72  87 SW7       30.12S
WILMINGTON     MOSUNNY   77  73  87 SW3       30.13R
HUNTINGTON       N/A     75  71  87 CALM      30.14R FOG
CHARLESTON     PTSUNNY   75  70  84 VRB3      30.14R
PINEVILLE*     SUNNY     71  67  87 MISG      30.23R FOG
BECKLEY        SUNNY     74  67  78 CALM      30.21R
BLUEFIELD      SUNNY     72  64  76 W6        30.24R
LOGAN CO APT*    N/A     72  72 100 CALM      30.18R
$$

VAZ002-007-008-TNZ017-027-036-066-071-201400
...SOUTHWEST VIRGINIA/EAST TENNESSEE...

CITY           SKY/WX    TMP DP  RH WIND       PRES   REMARKS
WISE*          SUNNY     73  64  73 SW3       30.25R
JONESVILLE*      N/A     73  68  83 CALM      30.20R
ABINGDON*      SUNNY     74  67  77 E3        30.21R
BRISTOL        MOSUNNY   74  67  78 CALM      30.18R
MORRISTOWN*    SUNNY     77  70  78 CALM      30.16R
SEVIERVILLE*   SUNNY     75  66  73 CALM      30.15R
KNOXVILLE      MOSUNNY   77  69  76 S3        30.14R
LAFOLLETTE*    SUNNY     75  68  78 CALM      30.20R
OAK RIDGE      SUNNY     76  68  76 CALM      30.16R
CROSSVILLE     SUNNY     75  68  78 W5        30.21R
NASHVILLE      MOSUNNY   83  73  72 CALM      30.14R
$$

...KEY TO REMARKS...
VSB - VISIBILITY IN MILES
WCI - WIND CHILL INDEX
HX  - HEAT INDEX

$$




USA.gov is the U.S. government's official web portal to all federal, state and local government web resources and services.